Flag for Norway Weather past 2 weeks in Farsund, Norway

Now
58 °F

Cool.


Feels Like: 55 °F
Forecast: 55 / 60 °F
Wind: 13 mph from West

Location: Lista Fyr

Current Time: Jul 6, 2015 at 8:05:03 AM

Latest Report: Jul 6, 2015 at 7:00 AM


Visibility: N/A

Pressure: 29.71 "Hg

Humidity: 84%

Dew point: 53 °F

Location of FarsundLocation

Historic Weather in Farsund — Graph

°F

Farsund temperature yesterday

Maximum temperature yesterday: 63 °F (at 12:00 AM)
Minimum temperature yesterday: 59 °F (at 2:00 AM)
Average temperature yesterday: 61 °F

Past Weeks' High & Low Weather Summary

 TemperatureHumidityPressure
High76 °F (Jul 2, 5:00 PM)99% (Jun 28, 3:00 AM)30.28 "Hg (Jun 28, 3:00 AM)
Low48 °F (Jun 26, 4:00 AM)54% (Jul 1, 5:00 PM)29.67 "Hg (Jun 23, 1:00 AM)
Average57 °F82%30.01 "Hg
* Reported Jun 21 6:00 AM — Jul 6 6:00 AM, Farsund, Weather by CustomWeather, © 2015

Note: Actual official high and low records may vary slightly from our data, if they occured in-between our weather recording intervals... More about our weather records

Advertising

Farsund weather history for previous 24 hours

 ConditionsComfort  
Time TempWeatherWind HumidityBarometerVisibility
6:00 AM
Mon, Jul 6
59 °FCool.5 mph90%29.71 "HgN/A
5:00 AM59 °FCool.3 mph92%29.71 "HgN/A
4:00 AM60 °FCool.7 mph92%29.73 "HgN/A
3:00 AM59 °FCool.1 mph90%29.75 "HgN/A
2:00 AM59 °FCool.2 mph89%29.76 "HgN/A
1:00 AM59 °FCool.2 mph88%29.77 "HgN/A
12:00 AM59 °FCool.5 mph83%29.79 "HgN/A
11:00 PM
Sun, Jul 5
61 °FCool.5 mph75%29.85 "HgN/A
10:00 PM62 °FCool.9 mph70%29.82 "HgN/A
9:00 PM61 °FCool.7 mph80%29.83 "HgN/A
8:00 PM61 °FOvercast.9 mph81%29.88 "Hg16 mi
7:00 PM62 °FCool.5 mph81%29.91 "HgN/A
6:00 PM61 °FCool.8 mph86%29.93 "HgN/A
5:00 PM61 °FCool.8 mph87%29.97 "HgN/A
4:00 PM62 °FCool.8 mph88%29.99 "HgN/A
3:00 PM61 °FCool.8 mph90%30.00 "HgN/A
2:00 PM60 °FFog.7 mph93%30.03 "Hg0 mi
1:00 PM60 °FCool.8 mph94%30.04 "HgN/A
12:00 PM60 °FCool.6 mph95%30.04 "HgN/A
11:00 AM60 °FFog.7 mph96%30.05 "Hg0 mi
10:00 AM61 °FCool.5 mph94%30.05 "HgN/A
9:00 AM61 °FCool.3 mph94%30.04 "HgN/A
8:00 AM61 °FFog.3 mph94%30.04 "Hg2 mi
Weather by CustomWeather, © 2015

See weather overviewHow to use our weather pages